Regional Weather Roundup
Issued by NWS Portland, ME

Home | Current Version | Previous Version | Text Only | Print | Product List | Glossary On
Versions: 1 2 3 4 5 6 7 8 9 10 11 12 13 14 15 16 17 18 19 20 21 22 23 24 25 26 27 28 29 30 31 32 33 34 35 36 37 38 39 40 41 42 43 44 45 46 47 48 49 50
775
ASUS41 KGYX 282210
RWRGYX
WEATHER ROUNDUP FOR MAINE AND NEW HAMPSHIRE
NATIONAL WEATHER SERVICE GRAY ME
600 PM EDT THU APR 28 2016

MEZ002-005-006-010-012-015-018-020-021-024-026-027-029-282300-
MAINE

CITY           SKY/WX    TMP DP  RH WIND       PRES   REMARKS
PORTLAND       MOSUNNY   46  25  43 S10       30.05R
SANFORD        MOSUNNY   46  25  42 SE8       30.05R
BAR HARBOR     SUNNY     47  11  23 N8        30.05R
WISCASSET      SUNNY     49  25  39 SW7       30.05R
ROCKLAND       SUNNY     44  26  49 S12       30.06R
FRYEBURG       SUNNY     54  11  18 MISG      30.01R
LEWISTONAUBURN SUNNY     52  14  22 NW7       30.02R
AUGUSTA        SUNNY     48  12  23 VRB3      30.03R
WATERVILLE     MOSUNNY   49  14  24 N7        30.01R
BANGOR         MOSUNNY   49  10  20 N12       30.05R
GREENVILLE       N/A     36   9  32 N13G20    30.01R
MILLINOCKET    SUNNY     43   6  21 NW9G22    30.06R
HOULTON        SUNNY     38   8  29 NW10G18   30.05R
PRESQUE ISLE   MOSUNNY   33   7  33 NW12      30.09R
FRENCHVILLE    SUNNY     32   5  32 NW14G23   30.04R
CARIBOU        SUNNY     34   9  35 NW16G25   30.06R
$$

NHZ002-005-008-009-011-012-014-282300-
NEW HAMPSHIRE

CITY           SKY/WX    TMP DP  RH WIND       PRES   REMARKS
PORTSMOUTH     MOSUNNY   47  28  47 SE16      30.03R
ROCHESTER      SUNNY     50  27  40 SE7       30.02R
NASHUA         MOSUNNY   61  20  20 W6        29.99R
MANCHESTER     PTSUNNY   60  17  18 VRB5      29.98R
CONCORD        SUNNY     60  18  19 N10       30.00R
LACONIA        SUNNY     54  16  22 NW9       30.01R
PLYMOUTH       FAIR      54  17  24 W6        30.01S
BERLIN         MOSUNNY   46  11  24 W5        30.03R
WHITEFIELD     MOSUNNY   47  14  26 VRB3      30.03R
JAFFREY        MOSUNNY   57  17  21 VRB3      29.99R
KEENE          MOSUNNY   57  19  23 NW7       30.00R
LEBANON        SUNNY     56  19  23 NE10      30.00R
MT WASHINGTON  PTSUNNY   19  10  68 W26         N/A  WCI   1
$$

VTZ005-007-008-282300-
VERMONT

CITY           SKY/WX    TMP DP  RH WIND       PRES   REMARKS
ST JOHNSBURY     N/A     46  16  30 MISG      30.04R
MONTPELIER     FAIR      46  11  24 N5        30.07R
BURLINGTON     PTSUNNY   46  16  30 N14       30.08R
$$

MAZ007-012-024-CTZ003-RIZ002-NYZ038-NYZ072-282300-
SOUTHERN NEW ENGLAND AND NY

CITY           SKY/WX    TMP DP  RH WIND       PRES   REMARKS
BOSTON         CLOUDY    50  27  40 SE16      30.04R
WORCESTER      CLOUDY    56  19  23 W5        29.99R
NANTUCKET      CLOUDY    47  34  60 SE13      30.08R
PROVIDENCE     CLOUDY    49  30  48 S16       30.06R
HARTFORD       CLOUDY    56  24  29 S15       29.99R
ALBANY         CLOUDY    56  21  25 SE3       30.00R
NEW YORK CITY  CLOUDY    53  30  41 S9        30.03R
$$

ANZ081-ANZ082-ANZ150-NHZ014-MEZ023>029-282300-
COASTAL MARINE OBSERVATIONS

STATION/POSITION TIME  TEMP    WIND        PRES    WAVE
                       AIR SEA DIR/SP/G            HT/PER
                 (UTC) (F)     (DEG/KT/KT) (MB)    (FT/S)
MOUNT DESERT ROC 2200   41     210/ 12/ 14 1018.1R
MATINICUS ROCK   2100   42     200/  8/  9 1017.4R
ISLE OF SHOALS   2100   43     140/ 15/ 17 1016.0R
CASHES LEDGE BUO 2150   42 45  190/ 12/ 16 1017.4R   3/10
GEORGES BANK BUO 2150   43 46              1018.4R   4/ 8
$$

.............KEY..............
   WCI - WIND CHILL
   TC  - TEMPERATURE IN CELSIUS
   VSB - VISIBILITY IN MILES
   HX  - HEAT INDEX
   FAIR- INDICATES FEW OR NO CLOUDS BELOW 12,000 FT, WITH NO
         SIGNIFICANT WEATHER AND/OR OBSTRUCTIONS TO VISIBILITY.






USA.gov is the U.S. government's official web portal to all federal, state and local government web resources and services.